Regional Weather Roundup
Issued by NWS

Home | Current Version | Previous Version | Graphics & Text | Print | Product List | Glossary On
Versions: 1 2 3 4 5 6 7 8 9 10 11 12 13 14 15 16 17 18 19 20 21 22 23 24 25 26 27 28 29 30 31 32 33 34 35 36 37 38 39 40 41 42 43 44 45 46 47 48 49 50
000
ASUS43 KDTX 232110
RWRMI
MICHIGAN HOURLY REGIONAL WEATHER ROUNDUP
NATIONAL WEATHER SERVICE DETROIT/PONTIAC MI
500 PM EDT WED APR 23 2014

NOTE: "FAIR" INDICATES FEW OR NO CLOUDS BELOW 12,000 FEET WITH NO
SIGNIFICANT WEATHER AND/OR OBSTRUCTION TO VISIBILITY.

MIZ047>049-052>055-059>063-066>070-074>076-081>083-232200-
SOUTHEAST LOWER MICHIGAN

CITY           SKY/WX    TMP DP  RH WIND       PRES   REMARKS
ADRIAN         SUNNY     57  22  25 N13G18    30.08F
ALMA           SUNNY     55  11  17 N6        30.09F
ANN ARBOR      SUNNY     56  20  24 NW3       30.08S
BAD AXE        SUNNY     46  13  25 N8        30.11S
DETROIT CITY   SUNNY     57  21  24 N9        30.08S
DETROIT        MOSUNNY   56  21  25 N12       30.08F
FLINT          SUNNY     53  17  24 NE8       30.11S
GROSSE ILE     SUNNY     55  19  24 NE10      30.06F
HILLSDALE      SUNNY     56  19  23 N7        30.08F
HOWELL         SUNNY     53  18  25 N8        30.09F

CITY           SKY/WX    TMP DP  RH WIND       PRES   REMARKS
JACKSON        SUNNY     57  19  22 VRB5      30.08F
LAMBERTVILLE   SUNNY     55  23  28 E3        30.08S
LANSING        SUNNY     54  20  26 N8        30.11F
LAPEER         NOT AVBL
MASON          SUNNY     54  22  29 N7        30.09F
MONROE         SUNNY     54  34  47 SE6       30.07S
MT. CLEMENS    MOSUNNY   53  18  25 N8G20     30.07S
PONTIAC        MOSUNNY   52  19  27 N10G16    30.08S
PORT HOPE        N/A     38  24  57 NE7       30.11S
PORT HURON     SUNNY     45  25  45 E14       30.11S
TRI CITIES     SUNNY     56  13  18 CALM      30.09F
YPSILANTI      SUNNY     59  21  23 N10G17    30.08F
$$
MIZ043>046-050>051-056>058-064>065-071>073-077>080-232200-
SOUTHWEST LOWER MICHIGAN

CITY           SKY/WX    TMP DP  RH WIND       PRES   REMARKS
BATTLE CREEK   SUNNY     55  19  24 N8        30.10F
BENTON HARBOR  SUNNY     41  29  62 VRB6      30.13F
BIG RAPIDS     SUNNY     55  12  18 N8        30.08F
COLDWATER      SUNNY     55  18  23 NE7       30.09F
HOLLAND        MOSUNNY   47  27  45 NW9       30.13F
GRAND RAPIDS   PTSUNNY   57  20  23 NW3       30.10F
KALAMAZOO      SUNNY     56  24  29 W5        30.10F
MARSHALL       SUNNY     54  18  24 NE5       30.08F
MUSKEGON       PTSUNNY   46  21  37 W9        30.13F
$$
MIZ016>042-232200-
NORTHERN LOWER MICHIGAN

CITY           SKY/WX    TMP DP  RH WIND       PRES   REMARKS
ALPENA         SUNNY     51   8  17 N12G21    30.10F
BEAVER ISLAND  MOSUNNY   43  19  37 W9        30.15F
BELLAIRE       MOSUNNY   49  16  26 N8        30.13F
CADILLAC       SUNNY     50   9  19 N7        30.09F
CHARLEVOIX     MOSUNNY   44  18  35 W10       30.18F
FRANKFORT      CLEAR     46  18  33 N8        30.15F
GAYLORD        MOSUNNY   48  15  26 NW8       30.09F
GRAYLING       MOSUNNY   53  11  18 NW6       30.09S
HARBOR SPRINGS MOSUNNY   50  19  29 NW10      30.12F
HOUGHTON LAKE  MOSUNNY   54   9  16 N7        30.08F
MANISTEE       SUNNY     43  19  39 NW12      30.14F
OSCODA         SUNNY     47  15  27 NE15      30.09F
PELLSTON       SUNNY     50  16  25 NW10G21   30.13F
TRAVERSE CITY  PTSUNNY   45  15  30 NE9       30.13F
$$
MIZ007>008-015-232200-
EASTERN UPPER MICHIGAN

CITY           SKY/WX    TMP DP  RH WIND       PRES   REMARKS
KINROSS        SUNNY     45  16  31 NW13      30.12S
MACKINAC ISLAN SUNNY     43  24  48 CALM      30.12F
NEWBERRY       SUNNY     44  23  44 N8        30.13F
S. S. MARIE    SUNNY     44  19  36 NW9       30.12S
$$
MIZ004>006-011>014-085-232200-
CENTRAL UPPER MICHIGAN

CITY           SKY/WX    TMP DP  RH WIND       PRES   REMARKS
MANISTIQUE     MOSUNNY   45  20  37 S9        30.13F
ESCANABA       MOSUNNY   45  16  31 S12       30.14S
MENOMINEE      MOSUNNY   46  12  25 SE10      30.15F
SAWYER-GWINN   SUNNY     48  18  29 NE7       30.12F
$$
MIZ001>003-009>011-084-232200-
WESTERN UPPER MICHIGAN

CITY           SKY/WX    TMP DP  RH WIND       PRES   REMARKS
IRON MOUNTAIN  PTSUNNY   54  15  21 E9        30.08F
HOUGHTON       MOSUNNY   45  22  40 E7        30.11F
COPPER HARBOR    N/A     41  27  57 CALM      30.13F
IRONWOOD       PTSUNNY   54  19  26 SE10      30.02F
$$

ABBREVIATIONS USED IN REMARKS
   TC - TEMPERATURE IN CELSIUS
  WCI - WIND CHILL INDEX
   HX - HEAT INDEX
  VSB - VISIBILITY




USA.gov is the U.S. government's official web portal to all federal, state and local government web resources and services.